Weather History for Perry, IA

Change the Weather History Date:

Tuesday, July 9, 2013

  Actual Average Record
Temperature  
Mean Temperature 82 °F -  
Max Temperature 92 °F 86 °F 97 °F (1989)
Min Temperature 73 °F 64 °F 51 °F (1953)
Cooling Degree Days 18    
Growing Degree Days 32 (Base 50)    
Moisture  
Dew Point 71 °F    
Average Humidity 71    
Maximum Humidity 88    
Minimum Humidity 48    
Precipitation  
Precipitation 0.14 in - - ()
Sea Level Pressure  
Sea Level Pressure 29.92 in    
Wind  
Wind Speed 6 mph (SW)    
Max Wind Speed 16 mph    
Max Gust Speed 21 mph    
Visibility 9 miles    
Events Rain    
Averages and records for this station are not official NWS values.
T = Trace of Precipitation, MM = Missing Value Source: NWS Daily Summary

Daily Weather History Graph

Daily Weather History Graph

Search for Another Location

Airport:

Trip Planner

Search our weather history database for the weather conditions in past years. The results will help you decide how hot, cold, wet, or windy it might be!

Date:

Astronomy

Jul. 09, 2013 Rise Set
Actual Time 5:50 AM CDT 8:53 PM CDT
Civil Twilight 5:16 AM CDT 9:26 PM CDT
Nautical Twilight 4:33 AM CDT 10:09 PM CDT
Astronomical Twilight 3:43 AM CDT 10:59 PM CDT
Moon 7:17 AM CDT (7/9) 9:28 PM CDT (7/9)
Length of Visible Light 16h 09m
Length of Day
15h 02m
New Moon, 2% of the Moon is Illuminated
Jul 9
New Moon
Jul 15
First Quarter
Jul 22
Full
Jul 29
Last Quarter
Aug 6
New

Hourly Weather History & Observations

Time (CDT) Temp. Heat Index Dew Point Humidity Pressure Visibility Wind Dir Wind Speed Gust Speed Precip Events Conditions
12:15 AM 74.5 °F - 70.3 °F 87% 29.95 in 7.0 mi SE 3.5 mph - N/A   Clear
12:35 AM 74.8 °F - 70.2 °F 85% 29.94 in 7.0 mi ESE 3.5 mph - N/A   Clear
12:55 AM 74.5 °F - 70.0 °F 86% 29.94 in 7.0 mi ESE 4.6 mph - N/A   Clear
1:15 AM 74.5 °F - 70.2 °F 86% 29.94 in 7.0 mi ESE 4.6 mph - N/A   Clear
1:35 AM 74.5 °F - 70.2 °F 86% 29.94 in 7.0 mi SE 5.8 mph - N/A   Clear
1:55 AM 73.8 °F - 69.8 °F 87% 29.94 in 7.0 mi SE 5.8 mph - N/A   Clear
2:15 AM 73.6 °F - 69.8 °F 88% 29.94 in 7.0 mi ESE 4.6 mph - N/A   Clear
2:35 AM 73.9 °F - 70.0 °F 87% 29.94 in 7.0 mi SE 4.6 mph - N/A   Clear
2:55 AM 73.6 °F - 69.8 °F 88% 29.93 in 7.0 mi SE 4.6 mph - N/A   Clear
3:15 AM 73.8 °F - 69.8 °F 87% 29.92 in 7.0 mi SE 4.6 mph - N/A   Clear
3:35 AM 74.3 °F - 69.8 °F 86% 29.92 in 7.0 mi SE 4.6 mph - N/A   Clear
3:55 AM 74.3 °F - 69.8 °F 86% 29.91 in 10.0 mi SE 5.8 mph - N/A   Scattered Clouds
4:15 AM 75.0 °F - 70.0 °F 84% 29.94 in 10.0 mi Calm Calm - N/A   Mostly Cloudy
4:35 AM 74.3 °F - 70.2 °F 87% 29.94 in 7.0 mi Calm Calm - N/A   Overcast
4:55 AM 74.8 °F - 69.8 °F 84% 29.94 in 7.0 mi SW 3.5 mph - N/A   Light Drizzle
5:15 AM 74.3 °F - 70.0 °F 86% 29.93 in 7.0 mi SSE 6.9 mph - N/A   Scattered Clouds
5:35 AM 73.9 °F - 70.0 °F 87% 29.92 in 7.0 mi SE 5.8 mph - N/A Rain Light Rain
5:55 AM 74.3 °F - 69.8 °F 86% 29.92 in 7.0 mi SSE 5.8 mph - N/A Rain Light Rain
6:15 AM 74.3 °F - 69.1 °F 84% 29.91 in 10.0 mi South 5.8 mph - N/A   Mostly Cloudy
6:35 AM 74.8 °F - 68.5 °F 81% 29.92 in 10.0 mi SSW 6.9 mph - N/A   Scattered Clouds
6:55 AM 75.2 °F - 68.0 °F 78% 29.91 in 10.0 mi SSW 9.2 mph - N/A   Scattered Clouds
7:15 AM 75.4 °F - 67.3 °F 76% 29.90 in 10.0 mi SSW 8.1 mph - N/A   Mostly Cloudy
7:35 AM 75.6 °F - 66.9 °F 74% 29.90 in 10.0 mi SSW 5.8 mph - N/A   Scattered Clouds
7:55 AM 75.6 °F - 67.1 °F 75% 29.91 in 10.0 mi Calm Calm - N/A   Scattered Clouds
8:15 AM 74.5 °F - 68.2 °F 81% 29.97 in 10.0 mi NW 13.8 mph - N/A   Overcast
8:35 AM 74.5 °F - 67.8 °F 80% 29.97 in 10.0 mi NNW 3.5 mph - N/A   Overcast
8:55 AM 75.0 °F - 68.2 °F 79% 29.99 in 4.0 mi NW 11.5 mph 17.3 mph 0.10 in Rain Heavy Rain
9:15 AM 76.1 °F - 69.4 °F 80% 29.98 in 10.0 mi NW 16.1 mph 20.7 mph 0.01 in   Mostly Cloudy
9:35 AM 76.1 °F - 70.0 °F 81% 29.97 in 10.0 mi NW 6.9 mph - 0.01 in Rain Light Rain
9:55 AM 76.1 °F - 69.8 °F 81% 29.96 in 10.0 mi West 6.9 mph - 0.01 in   Clear
10:15 AM 75.2 °F - 70.0 °F 84% 29.93 in 4.0 mi Calm Calm - 0.03 in Rain Rain
10:35 AM 75.4 °F - 71.2 °F 87% 29.92 in 10.0 mi SSE 6.9 mph - 0.03 in   Scattered Clouds
10:55 AM 77.7 °F - 71.8 °F 82% 29.91 in 10.0 mi South 4.6 mph - 0.03 in   Clear
11:55 AM 84.4 °F 88.5 °F 69.8 °F 61% 29.91 in 10.0 mi SSW 9.2 mph - N/A   Clear
12:27 PM 86.0 °F 91.8 °F 71.6 °F 62% 29.90 in 10.0 mi South 10.4 mph 18.4 mph N/A   Clear
12:35 PM 86.7 °F 92.9 °F 72.0 °F 61% 29.90 in 10.0 mi SSW 10.4 mph 17.3 mph N/A   Clear
12:46 PM 87.8 °F 93.8 °F 71.6 °F 58% 29.90 in 10.0 mi SSW 12.7 mph 17.3 mph N/A   Clear
12:55 PM 88.0 °F 94.7 °F 72.1 °F 59% 29.90 in 10.0 mi SSW 12.7 mph - N/A   Clear
1:07 PM 89.6 °F 96.2 °F 71.6 °F 55% 29.90 in 10.0 mi SSW 13.8 mph - N/A   Clear
1:15 PM 88.7 °F 94.3 °F 70.5 °F 55% 29.90 in 10.0 mi SW 11.5 mph - N/A   Clear
1:27 PM 89.6 °F 94.7 °F 69.8 °F 52% 29.90 in 10.0 mi SW 10.4 mph - N/A   Clear
1:35 PM 89.6 °F 94.3 °F 69.3 °F 51% 29.90 in 10.0 mi WSW 15.0 mph - N/A   Clear
2:15 PM 90.5 °F 95.5 °F 69.6 °F 50% 29.90 in 10.0 mi SW 8.1 mph - N/A   Clear
2:35 PM 91.2 °F 97.0 °F 70.2 °F 50% 29.90 in 10.0 mi SW 4.6 mph - N/A   Clear
2:55 PM 90.7 °F 95.0 °F 68.7 °F 48% 29.89 in 10.0 mi SW 4.6 mph - N/A   Scattered Clouds
3:15 PM 91.4 °F 97.3 °F 70.2 °F 50% 29.89 in 10.0 mi West 8.1 mph - N/A   Scattered Clouds
3:55 PM 92.1 °F 97.7 °F 70.0 °F 48% 29.89 in 10.0 mi West 8.1 mph - N/A   Clear
4:15 PM 92.3 °F 98.6 °F 70.5 °F 49% 29.89 in 10.0 mi West 6.9 mph - N/A   Clear
4:35 PM 91.0 °F 97.6 °F 71.2 °F 52% 29.89 in 10.0 mi WNW 6.9 mph - N/A   Scattered Clouds
4:55 PM 91.9 °F 97.4 °F 69.8 °F 48% 29.89 in 10.0 mi WNW 5.8 mph - N/A   Scattered Clouds
5:35 PM 90.7 °F 97.4 °F 71.4 °F 53% 29.89 in 10.0 mi WNW 3.5 mph - N/A   Scattered Clouds
5:55 PM 90.5 °F 98.1 °F 72.3 °F 55% 29.89 in 10.0 mi West 4.6 mph - N/A   Clear
6:15 PM 90.9 °F 98.3 °F 72.0 °F 54% 29.89 in 10.0 mi Calm Calm - N/A   Clear
6:35 PM 90.5 °F 98.1 °F 72.3 °F 55% 29.88 in 10.0 mi WNW 3.5 mph - N/A   Clear
6:55 PM 88.3 °F 96.9 °F 73.9 °F 62% 29.89 in 10.0 mi Calm Calm - N/A   Clear
7:15 PM 89.2 °F 98.4 °F 74.3 °F 61% 29.89 in 10.0 mi NW 3.5 mph - N/A   Mostly Cloudy
7:35 PM 87.8 °F 96.6 °F 74.3 °F 64% 29.89 in 10.0 mi NNW 3.5 mph - N/A   Mostly Cloudy
7:55 PM 88.0 °F 94.7 °F 71.8 °F 59% 29.89 in 10.0 mi NNW 5.8 mph - N/A   Scattered Clouds
8:15 PM 85.1 °F 92.6 °F 73.8 °F 69% 29.89 in 10.0 mi NW 3.5 mph - N/A   Scattered Clouds
8:35 PM 84.2 °F 91.6 °F 74.3 °F 72% 29.89 in 10.0 mi NW 3.5 mph - N/A   Scattered Clouds
8:55 PM 83.1 °F 90.1 °F 74.5 °F 75% 29.89 in 10.0 mi Calm Calm - N/A   Scattered Clouds
9:15 PM 82.0 °F 88.1 °F 74.3 °F 77% 29.90 in 10.0 mi NW 4.6 mph - N/A   Scattered Clouds
9:35 PM 82.2 °F 88.0 °F 73.4 °F 75% 29.91 in 10.0 mi NNW 5.8 mph - N/A   Scattered Clouds
9:55 PM 81.9 °F 86.6 °F 72.1 °F 72% 29.92 in 10.0 mi NNW 5.8 mph - N/A   Clear
10:15 PM 80.6 °F 84.7 °F 72.0 °F 75% 29.92 in 10.0 mi NNW 5.8 mph - N/A   Clear
10:35 PM 81.0 °F 84.9 °F 71.2 °F 72% 29.92 in 10.0 mi North 6.9 mph - N/A   Clear
10:55 PM 79.5 °F - 71.2 °F 76% 29.92 in 10.0 mi NNW 5.8 mph - N/A   Clear
11:15 PM 79.9 °F - 69.6 °F 71% 29.93 in 10.0 mi North 8.1 mph - N/A   Clear
11:35 PM 79.7 °F - 68.2 °F 68% 29.93 in 10.0 mi North 9.2 mph - N/A   Clear